Regional Weather Roundup
Issued by NWS

Home | Current Version | Previous Version | Text Only | Print | Product List | Glossary Off
Versions: 1 2 3 4 5 6 7 8 9 10 11 12 13 14 15 16 17 18 19 20 21 22 23 24 25 26 27 28 29 30 31 32 33 34 35 36 37 38 39 40 41 42 43 44 45 46 47 48 49 50

000
ASUS43 KMKX 070821
RWRWI

WISCONSIN REGIONAL WEATHER ROUNDUP
NATIONAL WEATHER SERVICE MILWAUKEE/SULLIVAN WI
300 AM CDT THU MAY 07 2015

NOTE: "FAIR" INDICATES FEW OR NO CLOUDS BELOW 12,000 FEET WITH NO
SIGNIFICANT WEATHER AND/OR OBSTRUCTIONS TO VISIBILITY.

WIZ001-002-006>008-014>016-023>028-070900-
NORTHWEST WISCONSIN

CITY           SKY/WX    TMP DP  RH WIND       PRES   REMARKS
SUPERIOR ARPT  MOCLDY    41  39  94 NE5       29.90S
ASHLAND        CLOUDY    50  49  96 CALM      29.91F
HAYWARD        PTCLDY    62  57  83 SE9       29.91F
SIREN          MOCLDY    63  57  81 SE7       29.87F
CUMBERLAND     MOCLDY    59  55  88 SE6       29.90F
RICE LAKE      PTCLDY    61  57  87 SE9       29.91F
CHETEK         MOCLDY    62  59  91 E9        29.91F
LADYSMITH      MOCLDY    62  59  91 SE7       29.96S FOG
EAU CLAIRE     PTCLDY    63  58  83 SE6       29.90F
MENOMONIE      PTCLDY    61  59  94 E7        29.90S
NEW RICHMOND   MOCLDY    62  57  82 SE9       29.86F
OSCEOLA        CLOUDY    64  59  84 SE9       29.87F
$$

WIZ003>005-009-010-017-018-070900-
NORTH CENTRAL WISCONSIN

CITY           SKY/WX    TMP DP  RH WIND       PRES   REMARKS
MANITOWISH WTR MOCLDY    59  57  92 S10       29.98F
ARBOR VITAE    PTCLDY    59  55  87 SE9       29.99F
WOODRUFF       PTCLDY    59  55  87 SE9       29.99F
RHINELANDER    PTCLDY    58  54  86 S5        30.02F
EAGLE RIVER    CLEAR     57  53  86 SE5       30.01F
LAND O LAKES   CLEAR     56  53  89 S6        30.02F
PHILLIPS       CLEAR     60  57  91 SE8       29.96F
TOMAHAWK       DRIZZLE   57  54  90 SE5       30.00F
MEDFORD        MOCLDY    59  56  91 SE7       29.98S FOG
MERRILL        CLOUDY    58  56  95 SE6       30.01F FOG
$$

WIZ029-030-035-036-043>047-070900-
CENTRAL WISCONSIN

CITY           SKY/WX    TMP DP  RH WIND       PRES   REMARKS
WAUSAU         CLOUDY    58  55  90 E7        29.99F FOG
MOSINEE        CLOUDY    57  55  94 E8        30.01F FOG
MARSHFIELD     MOCLDY    61  57  87 SE7       29.98F FOG
STEVENS POINT  CLOUDY    59  55  85 SE6       30.01F FOG
WAUPACA        PTCLDY    57  55  95 E3        30.02F FOG
WAUTOMA        MOCLDY    56  56 100 CALM      30.02F FOG
WISC RAPIDS    MOCLDY    62  56  80 SE6       30.00F
CAMP DOUGLAS   CLOUDY    62  62 100 SE8       29.97F
$$

WIZ011>013-019>022-031-037>040-048>050-070900-
NORTHEAST WISCONSIN

CITY           SKY/WX    TMP DP  RH WIND       PRES   REMARKS
ANTIGO         MOCLDY    53  52  98 SE6       30.04F FOG
SHAWANO        MOCLDY    53  51  93 E5        30.05F FOG
OCONTO         PTCLDY    45  42  90 CALM      30.05F
STURGEON BAY   PTCLDY    52  45  76 SE7       30.08S
GREEN BAY      CLEAR     50  48  93 CALM      30.05F
MANITOWOC        N/A    N/A N/A N/A MISG        N/A
APPLETON       CLEAR     54  52  94 CALM      30.04F FOG
CLINTONVILLE   MOCLDY    52  52 100 E5        30.04F FOG
OSHKOSH        PTCLDY    56  52  86 S6        30.02F FOG
$$

WIZ032>034-041-042-053>061-070900-
SOUTHWEST WISCONSIN

CITY           SKY/WX    TMP DP  RH WIND       PRES   REMARKS
LA CROSSE      MOCLDY    69  57  65 S8        29.91F
SPARTA         CLOUDY    65  57  74 SE6       29.94F
VIROQUA        MOCLDY    65  58  78 SE13G18   29.95F
BOSCOBEL       MOCLDY    68  58  70 E6        29.95F
PRAIRIE DU CHI MOCLDY    66  57  72 SE9       29.93S
PLATTEVILLE    PTCLDY    64  58  82 SE10      29.98S
$$

WIZ056-057-062-063-064-067-068-070900-
SOUTH CENTRAL WISCONSIN

CITY           SKY/WX    TMP DP  RH WIND       PRES   REMARKS
REEDSBURG      MOCLDY    64  58  83 SE6       29.98S HAZE
BARABOO/DELLS  MOCLDY    61  55  83 SE6       29.99F HAZE
LONE ROCK      MOCLDY    63  59  87 E6        29.97F FOG
MINERAL POINT  PTCLDY    63  57  82 SE8       29.98F
MADISON        CLEAR     61  55  81 S7        30.00F HAZE
MIDDLETON      CLEAR     60  58  94 E3        30.01F
WATERTOWN      CLEAR     54  54 100 CALM      30.02F FOG
MONROE         CLEAR     59  55  88 SE9       30.00F FOG
JANESVILLE     CLEAR     57  54  88 SE6       30.01F FOG
$$

WIZ051-052-058>065-066-070>072-070900-
SOUTHEAST WISCONSIN

CITY           SKY/WX    TMP DP  RH WIND       PRES   REMARKS
MILWAUKEE      CLEAR     45  43  93 E3        30.06F
WAUKESHA       FOG       45  45 100 CALM      30.06F VSB 3/4
MILWAUKEE/TIMM CLEAR     45  45 100 CALM      30.06F FOG
RACINE         PTCLDY    45  42  89 E5        30.07F
BURLINGTON     FOG       46  46 100 CALM      30.05F VSB 1/2
KENOSHA        PTCLDY    46  45  96 E3        30.05F FOG
FOND DU LAC    PTCLDY    56  52  86 S8        30.03F
SHEBOYGAN      CLEAR     44  42  93 CALM      30.05F FOG
WEST BEND      FOG       46  45  93 CALM      30.05F VSB<1/4
JUNEAU         CLEAR     54  52  92 SE9       30.04F FOG
$$

LSZ147-162-070900-
LAKE SUPERIOR

STATION/POSITION TIME  TEMP    WIND        PRES    WAVE
                       AIR SEA DIR/SP/G            HT/PER
                 (UTC) (F)     (DEG/KT/KT) (MB)    (FT/S)
W MID LAKE BUOY  0750   46 35  140/  8/ 10 1013.9F   1/ 4
DEVILS ISLAND    0800   55     140/  8/  9 1012.7F
PORT WING        0700   40      40/  9/ 10 1012.9S
SAXON HARBOR     0700   67     170/  3/ 12 1012.5F
$$

LMZ867-665-643>646-070900-
LAKE MICHIGAN

STATION/POSITION TIME  TEMP    WIND        PRES    WAVE
                       AIR SEA DIR/SP/G            HT/PER
                 (UTC) (F)     (DEG/KT/KT) (MB)    (FT/S)
CHAMBERS ISLAND  0700   46     350/  1/  2 1018.6S
NORTHPORT PIER   0700   45     140/  4/  4 1018.3F
SISTER BAY       0717   47        CALM       N/A
KEWAUNEE LAKESHO 0700   47      CALM  /  1 1017.5F
SHEBOYGAN LAKESH 0800   48     100/  2/  3 1018.5F
PORT WASHINGTON  0700   48     320/  1/  3 1018.6
ATWATER BUOY     0800   44      50/  2/  2 1019.1F
MILWAUKEE LAKESH 0800   45      40/  4/  4   N/A
KENOSHA   LAKESH 0800   45      60/  3/  5 1017.6F
$$

TC  - TEMPERATURE IN CELSIUS
VSB - VISIBILITY IN STATUTE MILES
WCI - WIND CHILL INDEX
HX  - HEAT INDEX



USA.gov is the U.S. government's official web portal to all federal, state and local government web resources and services.